Flag Weather past 2 weeks in Baltimore, Maryland, U.S.A.

Now
45 °F

Partly sunny.


Feels Like: 41 °F
Forecast: 32 / 41 °F
Wind: 8 mph from Northwest

Location: Baltimore-Washington International Airport

Current Time: Nov 27, 2014 at 12:51:38 PM

Latest Report: Nov 27, 2014 at 11:54 AM


Visibility: 10 mi

Pressure: 30.03 "Hg

Humidity: 60%

Dew point: 32 °F

Location of BaltimoreLocation

Historic Weather in Baltimore — Graph

°F

Baltimore temperature yesterday

Maximum temperature yesterday: 48 °F (at 3:54 AM)
Minimum temperature yesterday: 33 °F (at 11:54 AM)
Average temperature yesterday: 39 °F

Past Weeks' High & Low Weather Summary

 TemperatureHumidityPressure
High71 °F (Nov 24, 2:54 PM)100% (Nov 17, 12:03 PM)30.55 "Hg (Nov 17, 12:03 PM)
Low19 °F (Nov 22, 5:54 AM)26% (Nov 22, 1:54 PM)29.55 "Hg (Nov 17, 2:54 PM)
Average40 °F59%30.10 "Hg
* Reported Nov 12 11:54 AM — Nov 27 11:54 AM, Baltimore, Weather by CustomWeather, © 2014

Note: Actual official high and low records may vary slightly from our data, if they occured in-between our weather recording intervals... More about our weather records

Advertising

Baltimore weather history for previous 24 hours

 ConditionsComfort  
Time TempWeatherWind HumidityBarometerVisibility
11:54 AM
Nov 27
45 °FPartly sunny.8 mph60%30.03 "Hg10 mi
10:54 AM43 °FPartly sunny.5 mph65%30.04 "Hg10 mi
9:54 AM38 °FBroken clouds.3 mph76%30.06 "Hg10 mi
8:54 AM37 °FScattered clouds.5 mph76%30.05 "Hg10 mi
7:54 AM35 °FScattered clouds.No wind85%30.03 "Hg10 mi
6:54 AM35 °FPassing clouds.3 mph85%30.02 "Hg10 mi
5:54 AM34 °FPassing clouds.No wind88%30.02 "Hg10 mi
4:54 AM34 °FPartly cloudy.3 mph88%30.01 "Hg10 mi
3:54 AM34 °FPartly cloudy.6 mph92%30.00 "Hg10 mi
2:54 AM34 °FPartly cloudy.6 mph88%30.00 "Hg10 mi
1:54 AM35 °FOvercast.6 mph92%30.01 "Hg9 mi
12:54 AM33 °FPassing clouds.3 mph92%29.98 "Hg10 mi
11:54 PM
Nov 26
36 °FPartly cloudy.6 mph85%29.99 "Hg10 mi
10:54 PM36 °FDrizzle. Mostly cloudy.6 mph85%29.99 "Hg9 mi
9:54 PM36 °FMostly cloudy.7 mph85%29.96 "Hg10 mi
8:54 PM36 °FOvercast.6 mph85%29.93 "Hg10 mi
7:54 PM36 °FMostly cloudy.7 mph89%29.93 "Hg10 mi
6:54 PM36 °FOvercast.7 mph89%29.92 "Hg10 mi
5:54 PM35 °FLight rain. Fog.7 mph92%29.93 "Hg6 mi
4:54 PM35 °FLight rain. Overcast.9 mph92%29.93 "Hg7 mi
3:54 PM35 °FLight rain. Fog.8 mph92%29.91 "Hg2 mi
2:54 PM34 °FLight snow. Fog.8 mph92%29.88 "Hg2 mi
2:04 PM36 °FLight rain. Fog.6 mph93%29.89 "Hg2 mi
1:54 PM35 °FLight rain. Fog.6 mph92%29.90 "Hg4 mi
12:54 PM34 °FLight rain. Fog.7 mph92%29.92 "Hg2 mi
Weather by CustomWeather, © 2014

See weather overviewHow to use our weather pages